UR5WGN-5 Lvivska UA current weather conditions

sailwx.info

Wind from 270 at 5 knots gusting 10

Air temperature 8.9° C
Dewpoint 3.3° C

Last reported at 2018-Oct-23 12:05 UTC.
Time now 2018-Oct-23 12:36 UTC

Location: N 49°30' E 023°12'.
View on Google Maps.

See reports from other nearby stations

  
Tides and Currents Weather Stations Pressure Air Temp Water Temp Dewpoint Dewpoint Depression Visibility Wind Speed Wind Dir Waves Ship Positions
date/time (UTC)wind fromknots sea level pressurealtimeterstation pressurevisibilityair tempwater tempwave heightnotes
2018-Oct-23 12:05 270 5 gusting 10 8.9
2018-Oct-23 12:00 270 4 gusting 10 8.9
2018-Oct-23 11:55 247 4 gusting 7 8.9
2018-Oct-23 11:50 270 3 gusting 6 8.9
2018-Oct-23 11:45 270 6 gusting 21 8.9
2018-Oct-23 11:40 270 3 gusting 7 8.9
2018-Oct-23 11:35 247 5 gusting 8 8.9
2018-Oct-23 11:30 270 5 gusting 8 8.9
2018-Oct-23 11:25 270 9.4
2018-Oct-23 11:20 270 1 gusting 9 9.4
2018-Oct-23 11:15 270 1 gusting 8 9.4
2018-Oct-23 11:10 270 9.4
2018-Oct-23 11:05 270 4 gusting 8 9.4
2018-Oct-23 11:00 225 9.4
2018-Oct-23 10:55 270 3 gusting 7 9.4
2018-Oct-23 10:50 270 3 gusting 9 9.4
2018-Oct-23 10:45 247 7 gusting 8 9.4
2018-Oct-23 10:40 270 6 gusting 7 9.4
2018-Oct-23 10:35 270 3 gusting 11 9.4
2018-Oct-23 10:30 247 6 gusting 10 9.4
2018-Oct-23 10:25 270 6 gusting 9 9.4
2018-Oct-23 10:20 270 6 gusting 8 9.4
2018-Oct-23 10:15 270 6 gusting 8 9.4
2018-Oct-23 10:10 292 8.9
2018-Oct-23 10:05 225 8.9
2018-Oct-23 10:00 270 8.9
2018-Oct-23 09:55 247 6 gusting 6 8.9
2018-Oct-23 09:50 270 3 gusting 7 8.3
2018-Oct-23 09:45 270 2 gusting 10 8.3
2018-Oct-23 09:40 225 3 gusting 8 8.3
2018-Oct-23 09:35 270 3 gusting 6 8.3
2018-Oct-23 09:30 225 3 gusting 8 8.3
2018-Oct-23 09:25 270 4 gusting 8 8.3
2018-Oct-23 09:20 270 5 gusting 8 8.3
2018-Oct-23 09:15 270 8 gusting 8 8.3
2018-Oct-23 09:10 247 5 gusting 10 8.3
2018-Oct-23 09:05 315 3 gusting 8 8.3
2018-Oct-23 09:00 247 3 gusting 6 8.3
2018-Oct-23 08:55 270 1 gusting 6 8.3
2018-Oct-23 08:50 247 8.3
2018-Oct-23 08:45 247 1 gusting 9 8.3
2018-Oct-23 08:40 247 4 gusting 11 8.3
2018-Oct-23 08:35 270 2 gusting 12 8.3
2018-Oct-23 08:30 247 8 gusting 11 8.3
2018-Oct-23 08:25 270 3 gusting 8 7.8
2018-Oct-23 08:20 247 4 gusting 6 7.8
2018-Oct-23 08:15 292 6 gusting 8 7.8
2018-Oct-23 08:10 270 8 gusting 13 7.8
2018-Oct-23 08:05 270 4 gusting 6 7.8
2018-Oct-23 08:00 270 6 gusting 10 7.2
2018-Oct-23 07:55 270 1 gusting 9 7.2
2018-Oct-23 07:50 270 7.2
2018-Oct-23 07:45 270 2 gusting 9 7.2
2018-Oct-23 07:40 270 3 gusting 12 7.2
2018-Oct-23 07:35 202 6 gusting 6 6.7
2018-Oct-23 07:30 270 6.7
2018-Oct-23 07:25 270 6.1
2018-Oct-23 07:20 247 6.1
2018-Oct-23 07:15 292 6.1
2018-Oct-23 07:10 270 6.1
2018-Oct-23 07:05 270 3 gusting 5 6.1
2018-Oct-23 07:00 270 6.1
2018-Oct-23 06:55 270 6.1
2018-Oct-23 06:50 270 2 gusting 5 6.1
2018-Oct-23 06:45 270 6.1
2018-Oct-23 06:40 270 5.6
2018-Oct-23 06:35 270 5.6
2018-Oct-23 06:30 270 3 gusting 4 5.6
2018-Oct-23 06:25 5.6
2018-Oct-23 06:20 292 5.6
2018-Oct-23 06:15 337 5.6
2018-Oct-23 06:05 292 2 gusting 11 5.6
2018-Oct-23 06:00 315 7 gusting 10 5.6
2018-Oct-23 05:55 315 2 gusting 14 6.1
2018-Oct-23 05:50 292 6.1
2018-Oct-23 05:45 315 7 gusting 8 6.1
2018-Oct-23 05:40 270 6.1
2018-Oct-23 05:35 315 4 gusting 4 6.7
2018-Oct-23 05:30 337 6.7
2018-Oct-23 05:25 315 3 gusting 4 6.7
2018-Oct-23 05:20 6.7
2018-Oct-23 05:15 270 1 gusting 3 6.7
2018-Oct-23 05:10 292 6.7
2018-Oct-23 05:05 270 6.7
2018-Oct-23 05:00 292 6.7
2018-Oct-23 04:55 315 3 gusting 6 6.7
2018-Oct-23 04:50 270 6.7
2018-Oct-23 04:45 270 6.7
2018-Oct-23 04:40 270 2 gusting 5 6.7
2018-Oct-23 04:35 247 4 gusting 5 6.7
2018-Oct-23 04:30 337 6.7
2018-Oct-23 04:25 270 6.7
2018-Oct-23 04:20 292 7.2
2018-Oct-23 04:15 292 7.2
2018-Oct-23 04:10 7.2
2018-Oct-23 04:05 315 6 gusting 6 7.2
2018-Oct-23 04:00 270 7.2
2018-Oct-23 03:55 247 7.2
2018-Oct-23 03:50 270 7.2
2018-Oct-23 03:45 292 7.2
2018-Oct-23 03:40 270 7.2
2018-Oct-23 03:35 270 7.2
2018-Oct-23 03:30 270 2 gusting 6 7.2
2018-Oct-23 03:25 270 1 gusting 5 7.2
2018-Oct-23 03:20 247 1 gusting 3 7.2
2018-Oct-23 03:15 270 7.2
2018-Oct-23 03:10 270 2 gusting 5 7.2
2018-Oct-23 03:05 270 7.2
2018-Oct-23 03:00 270 3 gusting 7 7.2
2018-Oct-23 02:55 270 7.2
2018-Oct-23 02:50 270 7.2
2018-Oct-23 02:45 270 7.2
2018-Oct-23 02:40 292 3 gusting 6 7.2
2018-Oct-23 02:35 270 4 gusting 5 7.2
2018-Oct-23 02:30 292 2 gusting 5 7.2
2018-Oct-23 02:25 270 7.2
2018-Oct-23 02:20 247 7.2
2018-Oct-23 02:15 247 6 gusting 6 7.2
2018-Oct-23 02:10 270 7.2
2018-Oct-23 02:04 270 7.2
2018-Oct-23 01:59 270 7.2
2018-Oct-23 01:54 270 7.2
2018-Oct-23 01:49 270 7.2
2018-Oct-23 01:44 270 7.2
2018-Oct-23 01:39 225 4 gusting 4 7.2
2018-Oct-23 01:34 247 7.2
2018-Oct-23 01:29 270 7.2
2018-Oct-23 01:24 270 7.2
2018-Oct-23 01:19 270 7.2
2018-Oct-23 01:14 270 7.2
2018-Oct-23 01:09 225 7.2
2018-Oct-23 01:04 247 7.2
2018-Oct-23 00:59 270 6.7
2018-Oct-23 00:54 270 6.7
2018-Oct-23 00:49 270 6.7
2018-Oct-23 00:44 247 6.7
2018-Oct-23 00:39 270 6.7
2018-Oct-23 00:34 247 6.7
2018-Oct-23 00:29 247 6.7
2018-Oct-23 00:24 270 6.7
2018-Oct-23 00:19 270 6.7
2018-Oct-23 00:14 247 4 gusting 6 6.7
2018-Oct-23 00:09 270 6.7
2018-Oct-23 00:04 270 3 gusting 5 6.7
2018-Oct-22 23:59 270 3 gusting 6 6.1
2018-Oct-22 23:54 247 1 gusting 4 6.1
2018-Oct-22 23:49 247 4 gusting 4 6.1
2018-Oct-22 23:44 225 4 gusting 4 6.1
2018-Oct-22 23:39 225 6.1
2018-Oct-22 23:34 247 6.1
2018-Oct-22 23:29 270 6.1
2018-Oct-22 23:24 247 5.6
2018-Oct-22 23:19 247 5.6
2018-Oct-22 23:14 247 5.6
2018-Oct-22 23:09 270 5.6
2018-Oct-22 23:04 270 5.6
2018-Oct-22 22:59 292 5.0
2018-Oct-22 22:54 270 5.0
2018-Oct-22 22:49 270 5.0
2018-Oct-22 22:44 270 5.0
2018-Oct-22 22:39 202 5.0
2018-Oct-22 22:34 202 5.0
2018-Oct-22 22:29 225 4.4
2018-Oct-22 22:24 225 4.4
2018-Oct-22 22:19 225 4.4
2018-Oct-22 22:14 247 4.4
2018-Oct-22 22:09 202 4.4
2018-Oct-22 22:04 202 4.4
2018-Oct-22 21:59 225 4.4
2018-Oct-22 21:54 225 3.9
2018-Oct-22 21:49 225 3.9
2018-Oct-22 21:44 225 3.9
2018-Oct-22 21:39 225 3.9
2018-Oct-22 21:34 225 3.9
2018-Oct-22 21:29 247 3.9
2018-Oct-22 21:24 202 3.9
2018-Oct-22 21:19 202 3.9
2018-Oct-22 21:14 225 3.3
2018-Oct-22 21:09 225 3.3
2018-Oct-22 21:04 225 3.3
2018-Oct-22 20:59 225 3.3
2018-Oct-22 20:54 225 3.3
2018-Oct-22 20:49 225 3.3
2018-Oct-22 20:44 225 3.3
2018-Oct-22 20:39 225 3.3
2018-Oct-22 20:34 247 3.3
2018-Oct-22 20:29 247 3.3
2018-Oct-22 20:24 247 3.3
2018-Oct-22 20:19 247 3.3
2018-Oct-22 20:14 247 2.8
2018-Oct-22 20:09 225 2.8
2018-Oct-22 20:04 225 2.8
2018-Oct-22 19:59 225 2.8
2018-Oct-22 19:54 225 2.8
2018-Oct-22 19:49 202 2.8
2018-Oct-22 19:44 202 2.8
2018-Oct-22 19:39 202 2.8
2018-Oct-22 19:34 202 2.8
2018-Oct-22 19:29 202 2.8
2018-Oct-22 19:24 225 2.8
2018-Oct-22 19:19 225 2.8
2018-Oct-22 19:14 247 2.8
2018-Oct-22 19:09 247 2.8
2018-Oct-22 19:04 247 3.3
2018-Oct-22 18:59 247 3.3
2018-Oct-22 18:54 247 3.3
2018-Oct-22 18:49 247 3.3
2018-Oct-22 18:44 247 3.3
2018-Oct-22 18:39 247 3.3
2018-Oct-22 18:34 247 3.3
2018-Oct-22 18:29 247 3.9
2018-Oct-22 18:24 247 3.9
2018-Oct-22 18:19 247 3.9
2018-Oct-22 18:14 270 3.9
2018-Oct-22 18:09 270 3.9
2018-Oct-22 18:04 270 3.9
2018-Oct-22 17:59 270 3.9
2018-Oct-22 17:54 270 4.4
2018-Oct-22 17:49 270 4.4
2018-Oct-22 17:44 270 4.4
2018-Oct-22 17:39 270 4.4
2018-Oct-22 17:34 270 5.0
2018-Oct-22 17:29 270 5.0
2018-Oct-22 17:24 270 5.0
2018-Oct-22 17:19 270 5.0
2018-Oct-22 17:14 270 5.6
2018-Oct-22 17:09 270 5.6
2018-Oct-22 17:04 270 5.6
2018-Oct-22 16:59 270 5.6
2018-Oct-22 16:54 270 5.6
2018-Oct-22 16:49 292 6.1
2018-Oct-22 16:44 022 6.1
2018-Oct-22 16:39 022 6.7
2018-Oct-22 16:34 022 6.7
2018-Oct-22 16:29 022 6.7
2018-Oct-22 16:24 022 7.2
2018-Oct-22 16:19 022 7.2
2018-Oct-22 16:14 022 7.8
2018-Oct-22 16:09 022 7.8
2018-Oct-22 16:04 022 7.8
2018-Oct-22 15:59 022 8.3
2018-Oct-22 15:54 022 8.3
2018-Oct-22 15:49 022 8.9
2018-Oct-22 15:44 022 8.9
2018-Oct-22 15:39 022 8.9
2018-Oct-22 15:34 022 8.9
2018-Oct-22 15:29 022 9.4
2018-Oct-22 15:24 022 9.4
2018-Oct-22 15:19 022 9.4
2018-Oct-22 15:14 022 10.0
2018-Oct-22 15:09 022 10.0
2018-Oct-22 15:04 022 10.0
2018-Oct-22 14:59 022 10.0
2018-Oct-22 14:54 022 10.6
2018-Oct-22 14:49 022 10.6
2018-Oct-22 14:44 022 10.6
2018-Oct-22 14:39 022 10.6
2018-Oct-22 14:34 045 10.6
2018-Oct-22 14:29 045 11.1
2018-Oct-22 14:24 045 11.1
2018-Oct-22 14:19 045 11.1
2018-Oct-22 14:14 022 11.1
2018-Oct-22 14:09 022 11.1
2018-Oct-22 14:04 022 11.1
2018-Oct-22 13:59 067 11.1
2018-Oct-22 13:54 067 11.7
2018-Oct-22 13:49 090 11.7
2018-Oct-22 13:44 112 11.7
2018-Oct-22 13:39 112 11.7
2018-Oct-22 13:34 090 11.7
2018-Oct-22 13:29 067 11.7
2018-Oct-22 13:24 022 11.7
2018-Oct-22 13:19 022 11.7
2018-Oct-22 13:14 112 11.7
2018-Oct-22 13:09 045 11.7
2018-Oct-22 13:04 022 11.1
2018-Oct-22 12:59 022 11.1
2018-Oct-22 12:54 022 11.1
2018-Oct-22 12:49 022 11.1
2018-Oct-22 12:44 045 11.1
2018-Oct-22 12:39 045 11.1
2018-Oct-22 12:34 11.1
2018-Oct-22 12:29 022 11.1
2018-Oct-22 12:24 045 11.1
2018-Oct-22 12:19 11.1
2018-Oct-22 12:14 270 11.1
2018-Oct-22 12:09 337 11.1
2018-Oct-22 12:04 022 11.1
2018-Oct-22 11:59 022 11.1
2018-Oct-22 11:54 270 11.1
2018-Oct-22 11:49 337 11.1
2018-Oct-22 11:39 090 11.1
2018-Oct-22 11:34 022 11.1
2018-Oct-22 11:29 022 11.1
2018-Oct-22 11:24 022 10.6
2018-Oct-22 11:19 292 10.6
2018-Oct-22 11:14 10.6
2018-Oct-22 11:09 045 10.6
2018-Oct-22 11:04 045 10.6
2018-Oct-22 10:59 067 10.6
2018-Oct-22 10:54 067 10.6
2018-Oct-22 10:49 022 10.6
2018-Oct-22 10:44 10.6
2018-Oct-22 10:39 045 10.0
2018-Oct-22 10:34 045 10.0
2018-Oct-22 10:24 112 10.0
2018-Oct-22 10:19 067 10.0
2018-Oct-22 10:14 067 10.0
2018-Oct-22 10:09 045 10.0
2018-Oct-22 10:04 067 9.4
2018-Oct-22 09:59 090 9.4
2018-Oct-22 09:49 270 8.9
2018-Oct-22 09:44 270 8.9
2018-Oct-22 09:39 045 8.9
2018-Oct-22 09:34 067 8.9
2018-Oct-22 09:29 135 8.3
2018-Oct-22 09:24 067 8.3
2018-Oct-22 09:19 112 7.8
2018-Oct-22 09:14 067 7.8
2018-Oct-22 09:09 067 7.8
2018-Oct-22 09:04 067 7.8
2018-Oct-22 08:59 045 7.2
2018-Oct-22 08:54 022 7.2
2018-Oct-22 08:49 292 7.2
2018-Oct-22 08:44 292 6.7
2018-Oct-22 08:38 292 6.7
2018-Oct-22 08:33 6.7
2018-Oct-22 08:28 292 6.7
2018-Oct-22 08:23 270 6.1
2018-Oct-22 08:18 270 6.1
2018-Oct-22 08:13 270 6.1
2018-Oct-22 08:08 270 5.6
2018-Oct-22 08:03 270 5.6
2018-Oct-22 07:58 270 5.6
2018-Oct-22 07:53 270 5.6
2018-Oct-22 07:48 225 5.0
2018-Oct-22 07:43 225 5.0
2018-Oct-22 07:38 225 5.0
2018-Oct-22 07:33 225 4.4
2018-Oct-22 07:28 225 4.4
2018-Oct-22 07:23 225 4.4
2018-Oct-22 07:18 225 3.9
2018-Oct-22 07:13 225 3.9
2018-Oct-22 07:08 225 3.9
2018-Oct-22 07:03 225 3.9
2018-Oct-22 06:58 225 3.3
2018-Oct-22 06:53 225 3.3
2018-Oct-22 06:48 225 3.3
2018-Oct-22 06:43 225 2.8
2018-Oct-22 06:38 225 2.8
2018-Oct-22 06:33 225 2.8
2018-Oct-22 06:28 225 2.2
2018-Oct-22 06:23 225 2.2
2018-Oct-22 06:18 225 1.7
2018-Oct-22 06:13 225 1.7
2018-Oct-22 06:08 225 1.7
2018-Oct-22 06:03 225 1.7
2018-Oct-22 05:58 225 1.7
2018-Oct-22 05:53 225 1.1
2018-Oct-22 05:48 225 1.1
2018-Oct-22 05:43 225 1.1
2018-Oct-22 05:38 225 1.1
2018-Oct-22 05:33 225 1.1
2018-Oct-22 05:28 225 1.1
2018-Oct-22 05:23 225 1.1
2018-Oct-22 05:18 225 1.1
2018-Oct-22 05:13 225 1.1
2018-Oct-22 05:08 225 1.7
2018-Oct-22 05:03 225 1.7
2018-Oct-22 04:58 225 1.7
2018-Oct-22 04:53 225 1.7
2018-Oct-22 04:48 225 1.7
2018-Oct-22 04:43 225 1.7
2018-Oct-22 04:38 225 2.2
2018-Oct-22 04:33 225 2.2
2018-Oct-22 04:28 225 2.2
2018-Oct-22 04:23 225 2.2
2018-Oct-22 04:18 225 2.2
2018-Oct-22 04:13 225 1.7
2018-Oct-22 04:08 225 1.7
2018-Oct-22 04:03 225 1.7
2018-Oct-22 03:58 225 1.7
2018-Oct-22 03:53 225 1.7
2018-Oct-22 03:48 225 1.7
2018-Oct-22 03:43 225 1.7
2018-Oct-22 03:38 225 1.7
2018-Oct-22 03:33 225 1.7
2018-Oct-22 03:28 225 1.7
2018-Oct-22 03:23 225 1.7
2018-Oct-22 03:18 225 1.7
2018-Oct-22 03:13 225 1.7
2018-Oct-22 03:08 225 1.7
2018-Oct-22 03:03 225 1.7
2018-Oct-22 02:58 225 1.7
2018-Oct-22 02:53 225 1.7
2018-Oct-22 02:48 225 2.2
2018-Oct-22 02:43 225 2.2
2018-Oct-22 02:38 225 2.2
2018-Oct-22 02:33 225 2.2
2018-Oct-22 02:28 225 2.2
2018-Oct-22 02:23 225 2.2
2018-Oct-22 02:18 225 2.2
2018-Oct-22 02:13 225 2.2
2018-Oct-22 02:08 225 2.2
2018-Oct-22 02:03 225 2.2
2018-Oct-22 01:53 225 2.2
2018-Oct-22 01:48 225 2.2
2018-Oct-22 01:43 225 2.2
2018-Oct-22 01:38 225 2.2
2018-Oct-22 01:33 225 2.2
2018-Oct-22 01:28 225 2.2
2018-Oct-22 01:23 225 2.2
2018-Oct-22 01:18 225 2.2
2018-Oct-22 01:13 225 2.2
2018-Oct-22 01:08 225 2.2
2018-Oct-22 01:03 225 2.2
2018-Oct-22 00:58 225 2.8
2018-Oct-22 00:53 225 2.8
2018-Oct-22 00:48 225 2.8
2018-Oct-22 00:43 225 2.8
2018-Oct-22 00:38 225 2.8
2018-Oct-22 00:33 225 2.8
2018-Oct-22 00:28 225 2.8
2018-Oct-22 00:23 225 2.8
2018-Oct-22 00:18 225 2.8
2018-Oct-22 00:13 225 2.8
2018-Oct-22 00:08 225 2.8
2018-Oct-22 00:03 225 2.8
2018-Oct-21 23:58 225 2.8
2018-Oct-21 23:53 225 2.2
2018-Oct-21 23:48 225 2.2
2018-Oct-21 23:43 225 2.2
2018-Oct-21 23:38 225 2.2
2018-Oct-21 23:33 225 2.2
2018-Oct-21 23:28 225 2.2
2018-Oct-21 23:23 225 2.2
2018-Oct-21 23:18 225 2.2
2018-Oct-21 23:13 225 2.2
2018-Oct-21 23:08 225 2.2
2018-Oct-21 23:03 225 2.2
2018-Oct-21 22:58 225 2.2
2018-Oct-21 22:53 225 2.2
2018-Oct-21 22:48 225 2.2
2018-Oct-21 22:43 225 2.2
2018-Oct-21 22:38 225 2.2
2018-Oct-21 22:33 225 2.8
2018-Oct-21 22:28 225 2.8
2018-Oct-21 22:23 225 2.8
2018-Oct-21 22:18 225 2.8
2018-Oct-21 22:13 247 2.8
2018-Oct-21 22:08 247 2.8
2018-Oct-21 22:03 247 2.8
2018-Oct-21 21:58 247 3.3
2018-Oct-21 21:53 247 3.3
2018-Oct-21 21:48 247 3.3
2018-Oct-21 21:43 247 3.3
2018-Oct-21 21:38 247 3.3
2018-Oct-21 21:33 247 3.3
2018-Oct-21 21:28 247 3.3
2018-Oct-21 21:23 247 3.3
2018-Oct-21 21:18 247 3.3
2018-Oct-21 21:13 247 3.9
2018-Oct-21 21:08 247 3.9
2018-Oct-21 21:03 247 3.9
2018-Oct-21 20:58 247 3.9
2018-Oct-21 20:53 247 3.9
2018-Oct-21 20:48 247 3.9
2018-Oct-21 20:43 247 3.9
2018-Oct-21 20:38 247 3.9
2018-Oct-21 20:33 247 3.9
2018-Oct-21 20:28 247 3.9
2018-Oct-21 20:23 247 3.9
2018-Oct-21 20:18 247 3.9
2018-Oct-21 20:13 247 4.4
2018-Oct-21 20:08 247 4.4
2018-Oct-21 20:03 247 4.4
2018-Oct-21 19:58 247 4.4
2018-Oct-21 19:53 270 4.4
2018-Oct-21 19:48 292 4.4
2018-Oct-21 19:43 292 5.0
2018-Oct-21 19:38 292 5.0
2018-Oct-21 19:33 292 5.0
2018-Oct-21 19:28 292 5.0
2018-Oct-21 19:23 292 5.0
2018-Oct-21 19:18 292 5.0
2018-Oct-21 19:13 292 5.0
2018-Oct-21 19:08 292 5.0
2018-Oct-21 19:03 292 5.0
2018-Oct-21 18:58 292 5.6
2018-Oct-21 18:53 292 5.6
2018-Oct-21 18:48 315 5.6
2018-Oct-21 18:43 270 5.6
2018-Oct-21 18:38 270 5.6
2018-Oct-21 18:33 270 5.6
2018-Oct-21 18:28 270 5.6
2018-Oct-21 18:23 270 6.1
2018-Oct-21 18:18 270 6.1
2018-Oct-21 18:13 270 6.1
2018-Oct-21 18:08 270 6.1
2018-Oct-21 18:03 270 6.1
2018-Oct-21 17:58 270 6.7
2018-Oct-21 17:53 270 6.7
2018-Oct-21 17:48 270 6.7
2018-Oct-21 17:43 270 6.7
2018-Oct-21 17:38 270 6.7
2018-Oct-21 17:33 270 7.2
2018-Oct-21 17:28 270 7.2
2018-Oct-21 17:23 270 7.2
2018-Oct-21 17:18 270 7.8
2018-Oct-21 17:13 270 7.8
2018-Oct-21 17:08 270 7.8
2018-Oct-21 17:03 270 7.8
2018-Oct-21 16:58 270 7.8
2018-Oct-21 16:53 270 7.8
2018-Oct-21 16:48 270 7.8
2018-Oct-21 16:43 270 7.8
2018-Oct-21 16:38 292 7.8
2018-Oct-21 16:33 270 7.8
2018-Oct-21 16:28 270 7.8
2018-Oct-21 16:23 270 8.3
2018-Oct-21 16:18 270 8.3
2018-Oct-21 16:13 270 8.3
2018-Oct-21 16:08 270 8.3
2018-Oct-21 16:03 270 8.3
2018-Oct-21 15:58 270 8.3
2018-Oct-21 15:53 270 8.3
2018-Oct-21 15:48 270 8.3
2018-Oct-21 15:43 270 8.3
2018-Oct-21 15:38 270 8.3
2018-Oct-21 15:33 270 8.3
2018-Oct-21 15:28 292 8.3
2018-Oct-21 15:23 292 8.3
2018-Oct-21 15:18 292 8.3
2018-Oct-21 15:12 315 8.9
2018-Oct-21 15:07 315 8.9
2018-Oct-21 15:02 315 8.9
2018-Oct-21 14:57 315 8.9
2018-Oct-21 14:52 315 8.9
2018-Oct-21 14:47 315 8.9
2018-Oct-21 14:42 315 8.9
2018-Oct-21 14:37 337 8.9
2018-Oct-21 14:32 337 8.9
2018-Oct-21 14:27 337 8.9
2018-Oct-21 14:22 315 8.9
2018-Oct-21 14:17 315 8.9
2018-Oct-21 14:12 270 8.9
2018-Oct-21 14:07 337 8.9
2018-Oct-21 14:02 292 8.9
2018-Oct-21 13:57 292 8.9
2018-Oct-21 13:52 292 8.9
2018-Oct-21 13:47 315 8.9
2018-Oct-21 13:42 292 8.9
2018-Oct-21 13:37 022 8.9
2018-Oct-21 13:32 022 8.9
2018-Oct-21 13:27 337 8.9
2018-Oct-21 13:22 045 8.9
2018-Oct-21 13:17 022 8.9
2018-Oct-21 13:12 8.9
2018-Oct-21 13:07 337 8.9
2018-Oct-21 13:02 8.9
2018-Oct-21 12:57 022 8.9
2018-Oct-21 12:52 045 8.9
2018-Oct-21 12:47 337 9.4
2018-Oct-21 12:42 337 9.4
2018-Oct-21 12:37 9.4
2018-Oct-21 12:32 022 9.4
2018-Oct-21 12:27 022 9.4
2018-Oct-21 12:22 022 9.4
2018-Oct-21 12:17 022 9.4
2018-Oct-21 12:12 022 8.9
2018-Oct-21 12:07 022 9.4
2018-Oct-21 12:02 022 9.4